Back to catalog

COSMOS 1192

AliveMilitaryLEO
NORAD 11875·PAYLOAD·🇷🇺 Russia

Launched Jul 9, 1980 from Plesetsk Cosmodrome

Loading…

Next Passes (next 24 hours)

TLE

FreshSource: Space-Track

Epoch: Sep 14, 2026, 10:32 UTC

1 11875U 80058A   26257.43898247 -.00000029  00000-0 -73621-4 0  9996
2 11875  74.0147 255.7107 0050029 343.8077  88.3274 12.57211592119527

Track COSMOS 1192 in real time with AllMySat

Download on the App Store